Date String (YYYY-MM-DD hh:mm:ss) UTC,Instrument flags,Ambient pressure (hPa),Sample flow (lpm),Bypass flow (lpm),Sample temperature (°C),Ambient temperature (°C),ASC tube jacket temperature (°C),LED temperature (°C),Box temperature (°C),Sample RH (%),Span deviation,Mass concentration (μg/m³),Mass concentration (μg/m³),Mass concentration (μg/m³)
DateTimeUTC,F1_M11,P_M11,Q1_M11,Q2_M11,T1_M11,T2_M11,T3_M11,T4_M11,T5_M11,U1_M11,ZSPAN_M11,X2_M11,X0_M11,X1_M11
2023-02-06 14:00:00,,0816.1,4.96,0.00,22.4,20.9,00.0,31.3,24.1,07.7,0000.0,0000.88,0002.56,0000.61
2023-02-06 14:01:00,,0815.7,5.05,0.00,22.4,20.8,00.0,31.3,24.1,07.9,0000.0,0000.91,0002.74,0000.62
2023-02-06 14:02:00,,0816.0,5.03,0.00,22.4,20.8,00.0,31.3,24.0,07.7,0000.0,0000.91,0002.65,0000.62
2023-02-06 14:03:00,,0815.4,4.97,0.00,22.3,20.7,00.0,31.3,24.0,07.8,0000.0,0000.90,0002.61,0000.61
2023-02-06 14:04:00,,0815.3,4.99,0.00,22.3,20.6,00.0,31.2,24.0,07.6,0000.0,0000.89,0002.59,0000.57
2023-02-06 14:05:00,,0815.8,4.99,0.00,22.3,20.8,00.0,31.2,24.0,07.5,0000.0,0000.80,0002.55,0000.51
2023-02-06 14:06:00,,0815.9,4.98,0.00,22.4,21.7,00.0,31.2,24.3,07.4,0000.0,0000.77,0002.99,0000.47
2023-02-06 14:07:00,,0815.7,5.02,0.00,22.5,22.7,00.0,31.1,24.5,07.1,0000.0,0000.76,0002.70,0000.46
2023-02-06 14:08:00,,0815.7,4.96,0.00,22.6,22.7,00.0,31.2,24.6,07.2,0000.0,0000.78,0002.68,0000.44
2023-02-06 14:09:00,,0815.7,4.96,0.00,22.6,22.3,00.0,31.3,24.5,07.2,0000.0,0000.80,0002.80,0000.42
2023-02-06 14:10:00,,0815.9,4.98,0.00,22.6,21.9,00.0,31.3,24.4,07.3,0000.0,0000.78,0002.80,0000.39
2023-02-06 14:11:00,,0815.9,5.01,0.00,22.5,21.5,00.0,31.3,24.3,07.4,0000.0,0000.79,0002.46,0000.37
2023-02-06 14:12:00,,0815.8,5.00,0.00,22.5,21.3,00.0,31.3,24.2,07.2,0000.0,0000.77,0002.30,0000.36
2023-02-06 14:13:00,,0816.0,4.94,0.00,22.5,21.1,00.0,31.3,24.1,07.2,0000.0,0000.76,0002.37,0000.35
2023-02-06 14:14:00,,0815.8,5.07,0.00,22.4,20.9,00.0,31.3,24.0,07.0,0000.0,0000.75,0002.33,0000.35
2023-02-06 14:15:00,,0815.9,5.02,0.00,22.4,20.7,00.0,31.3,24.0,07.0,0000.0,0000.75,0002.40,0000.35
2023-02-06 14:16:00,,0815.8,4.96,0.00,22.3,20.6,00.0,31.3,23.9,07.3,0000.0,0000.78,0002.63,0000.35
2023-02-06 14:17:00,,0815.8,5.00,0.00,22.3,20.5,00.0,31.3,23.8,07.1,0000.0,0000.79,0002.49,0000.34
2023-02-06 14:18:00,,0815.8,5.02,0.00,22.2,20.4,00.0,31.2,23.8,07.1,0000.0,0000.78,0002.49,0000.35
2023-02-06 14:19:00,,0815.7,4.98,0.00,22.2,20.3,00.0,31.2,23.7,07.0,0000.0,0000.74,0002.43,0000.34
2023-02-06 14:20:00,,0815.8,5.02,0.00,22.2,20.7,00.0,31.2,23.8,07.1,0000.0,0000.72,0002.34,0000.33
2023-02-06 14:21:00,,0815.7,4.98,0.00,22.3,21.8,00.0,31.1,24.1,07.2,0000.0,0000.69,0002.26,0000.33
2023-02-06 14:22:00,,0815.8,5.03,0.00,22.4,22.8,00.0,31.1,24.4,07.1,0000.0,0000.63,0002.10,0000.32
2023-02-06 14:23:00,,0816.1,4.96,0.00,22.5,22.6,00.0,31.2,24.4,07.2,0000.0,0000.62,0002.09,0000.32
2023-02-06 14:24:00,,0815.9,5.06,0.00,22.5,22.1,00.0,31.2,24.3,07.1,0000.0,0000.62,0002.06,0000.32
2023-02-06 14:25:00,,0815.9,5.00,0.00,22.5,21.7,00.0,31.2,24.2,07.1,0000.0,0000.59,0002.07,0000.31
2023-02-06 14:26:00,,0815.9,4.97,0.00,22.4,21.3,00.0,31.3,24.1,07.0,0000.0,0000.57,0002.16,0000.30
2023-02-06 14:27:00,,0816.0,4.99,0.00,22.4,21.0,00.0,31.3,24.0,07.0,0000.0,0000.55,0002.12,0000.30
2023-02-06 14:28:00,,0815.8,5.05,0.00,22.3,20.8,00.0,31.3,23.9,06.8,0000.0,0000.55,0001.71,0000.30
2023-02-06 14:29:00,,0815.6,4.98,0.00,22.3,20.7,00.0,31.2,23.9,06.9,0000.0,0000.54,0001.70,0000.30
2023-02-06 14:30:00,,0815.7,4.99,0.00,22.2,20.6,00.0,31.2,23.8,07.0,0000.0,0000.54,0001.70,0000.30
2023-02-06 14:31:00,,0815.7,4.96,0.00,22.2,20.5,00.0,31.2,23.7,07.1,0000.0,0000.53,0001.96,0000.30
2023-02-06 14:32:00,,0815.9,5.03,0.00,22.2,20.5,00.0,31.2,23.7,07.3,0000.0,0000.54,0002.95,0000.30
2023-02-06 14:33:00,,0816.0,5.03,0.00,22.1,20.4,00.0,31.2,23.6,07.5,0000.0,0000.54,0003.01,0000.31
2023-02-06 14:34:00,,0816.1,4.95,0.00,22.1,20.3,00.0,31.1,23.6,07.5,0000.0,0000.54,0003.05,0000.30
2023-02-06 14:35:00,,0816.0,5.02,0.00,22.1,20.8,00.0,31.1,23.7,07.6,0000.0,0000.54,0003.04,0000.30
2023-02-06 14:36:00,,0816.1,5.02,0.00,22.2,21.9,00.0,31.1,24.1,07.7,0000.0,0000.54,0003.07,0000.29
2023-02-06 14:37:00,,0816.1,4.99,0.00,22.3,22.8,00.0,31.1,24.4,07.9,0000.0,0000.53,0002.89,0000.28
2023-02-06 14:38:00,,0816.1,4.96,0.00,22.4,22.6,00.0,31.1,24.4,07.9,0000.0,0000.49,0002.45,0000.27
2023-02-06 14:39:00,,0816.1,5.05,0.00,22.4,22.0,00.0,31.2,24.2,07.7,0000.0,0000.45,0002.33,0000.27
2023-02-06 14:40:00,,0816.1,4.98,0.00,22.4,21.6,00.0,31.2,24.1,07.7,0000.0,0000.44,0002.31,0000.26
2023-02-06 14:41:00,,0816.1,4.98,0.00,22.3,21.3,00.0,31.2,24.0,07.6,0000.0,0000.43,0002.28,0000.26
2023-02-06 14:42:00,,0816.1,5.03,0.00,22.3,21.0,00.0,31.2,23.9,07.9,0000.0,0000.42,0002.25,0000.24
2023-02-06 14:43:00,,0816.1,5.06,0.00,22.3,20.8,00.0,31.2,23.9,08.0,0000.0,0000.39,0001.10,0000.23
2023-02-06 14:44:00,,0816.1,4.97,0.00,22.2,20.6,00.0,31.2,23.8,08.1,0000.0,0000.38,0000.88,0000.23
2023-02-06 14:45:00,,0816.1,5.02,0.00,22.2,20.4,00.0,31.2,23.7,08.0,0000.0,0000.38,0000.81,0000.23
2023-02-06 14:46:00,,0816.2,5.00,0.00,22.1,20.3,00.0,31.1,23.6,08.2,0000.0,0000.36,0000.71,0000.22
2023-02-06 14:47:00,,0816.2,5.05,0.00,22.1,20.2,00.0,31.1,23.5,08.2,0000.0,0000.39,0001.13,0000.22
2023-02-06 14:48:00,,0816.3,4.97,0.00,22.0,20.3,00.0,31.1,23.6,08.3,0000.0,0000.42,0001.55,0000.22
2023-02-06 14:49:00,,0816.4,5.00,0.00,22.1,21.4,00.0,31.0,23.9,08.2,0000.0,0000.43,0001.58,0000.21
2023-02-06 14:50:00,,0816.3,5.02,0.00,22.2,22.5,00.0,31.0,24.2,08.1,0000.0,0000.45,0001.62,0000.20
2023-02-06 14:51:00,,0816.2,4.98,0.00,22.3,22.7,00.0,31.1,24.3,08.1,0000.0,0000.45,0001.60,0000.20
2023-02-06 14:52:00,,0816.2,4.99,0.00,22.3,22.1,00.0,31.1,24.2,08.0,0000.0,0000.42,0001.54,0000.19
2023-02-06 14:53:00,,0816.3,5.03,0.00,22.3,21.7,00.0,31.2,24.1,08.0,0000.0,0000.42,0001.54,0000.19
2023-02-06 14:54:00,,0816.4,4.99,0.00,22.3,21.3,00.0,31.2,24.0,08.1,0000.0,0000.43,0001.62,0000.19
2023-02-06 14:55:00,,0816.5,4.93,0.00,22.3,21.0,00.0,31.2,23.9,08.4,0000.0,0000.42,0001.70,0000.19
2023-02-06 14:56:00,,0816.5,5.01,0.00,22.2,20.8,00.0,31.2,23.8,08.3,0000.0,0000.40,0001.82,0000.19
2023-02-06 14:57:00,,0816.5,5.04,0.00,22.2,20.6,00.0,31.2,23.8,08.2,0000.0,0000.40,0001.81,0000.19
2023-02-06 14:58:00,,0816.8,5.00,0.00,22.1,20.5,00.0,31.1,23.7,08.2,0000.0,0000.36,0001.27,0000.20
2023-02-06 14:59:00,,0816.7,4.99,0.00,22.1,20.4,00.0,31.1,23.6,08.1,0000.0,0000.35,0000.90,0000.20
